User: anonymous   Login
Location: Starry Hill Observatory
(46.8582°N, 122.3590°W)
Time: 08:08:07
(UTC-07:00)
Language:

Cosmos 1300 Rocket - Orbit

View from above orbital plane
View from above orbital plane
View from above satellite
View from above satellite

Ground track
Ground track

The orbit data is extracted from the following two-line orbital elements,

1 12786U 81082B   14296.10128757  .00000626  00000-0  71857-4 0   229
2 12786 082.4886 159.9250 0017363 205.1260 154.9112 14.84212478791189
Epoch (UTC): 23 October 2014 02:25:51
Eccentricity: 0.0017363
inclination: 82.4886°
perigee height: 604 km
apogee height: 628 km
right ascension of ascending node: 159.9250°
argument of perigee: 205.1260°
revolutions per day: 14.84212478
mean anomaly at epoch: 154.9112°
orbit number at epoch: 79118

The dashed part of the orbit path shows where the satellite is in the earth's shadow,  

DLR